Погода в Пьюре

Перу     5°11′32″S   80°37′40″W
темп.,
°C
ветер,
м/с
пор.,
м/с
влажн.,
%
обл.,
%
осадки,
мм/ч
давл.,
гПа
погр.,
м
17 мая, вт
вт1701:00+20ююв457366 0.0 1014391
04:00+19ююв337598 0.0 1013232
07:00+19ю3475100 0.0 1014228
10:00+24ю335568 0.0 1015563
13:00+29ююз4341100 0.0 10121075
16:00+26зюз7651100 0.0 1011501
19:00+22юз6765100 0.0 1014403
22:00+21ююв557090 0.0 1017424
18 мая, ср
ср1801:00+20ю457252 0.0 1016409
04:00+20ююв3474100 0.0 1014278
07:00+20юв237184 0.0 1016216
10:00+24ююв2255100 0.0 1016538
13:00+29ююз3341100 0.0 1013978
16:00+25юз765397 0.0 1012375
19:00+22юз6767100 0.0 1014282
22:00+21ююв6769100 0.0 1016473
19 мая, чт
чт1901:00+21ююв5570100 0.0 1015435
04:00+20ююв4474100 0.0 1015334
07:00+20ююв447470 0.0 1015295
10:00+25ююв4455100 0.0 1016636
13:00+30ююз554017 0.0 10121071
16:00+28юз774699 0.0 1011943
19:00+23ю8958100 0.0 1013542
22:00+21ю5769100 0.0 1015433
20 мая, пт
пт2001:00+20ююв4472100 0.0 1014372
04:00+20ююв3473100 0.0 1013311
07:00+20ю337396 0.0 1014249
10:00+24ю3357100 0.0 1015555
13:00+29ююз544334 0.0 10121008
16:00+26юз76515 0.0 1010593
19:00+23ю896033 0.0 1012497
22:00+20ю567196 0.0 1015416
21 мая, сб
сб2101:00+20ю337355 0.0 1014324
04:00+19ю3477100 0.0 1014255
07:00+19ю34795 0.0 1015241
10:00+24ю32605 0.0 1016656
13:00+29ююз43440 0.0 10141053
16:00+27юз75500 0.0 1012585
19:00+24ю885799 0.0 1014550
22:00+21ю5670100 0.0 1016393